Find Starlink 4269

NORAD ID: 52992 Int'l Des: 2022-076 Owner: SPXS Country: US Constellation: starlink operational
LEOCIRCULAR

現在のビュー

3D地球を読み込み中...

About Starlink 4269

Starlink 4269 (NORAD 52992) is a starlink constellation satellite (v1.5) launched Jul 7, 2022 by SPXS of US. It operates in LEO, CIRCULAR orbit with a mass of 297.00 kg.

Starlink 4269について

説明を読み込み中...

次回通過

Passes for default location (London). Set your location on the main map for personalized predictions.

高度履歴

Loading altitude history...

軌道要素

1 52992U 22076G 26173.46281931 -.00000116 00000-0 10840-4 0 9993
2 52992 53.1606 353.6576 0001327 97.8981 262.2161 15.08829671218525
Epoch: Jun 22, 2026 • Age: 24 hours

現在のステータス

高度 543.4 km
速度 7.60 km/s
衛星直下点 44.13°N, 38.93°E
打ち上げ日 Jul 7, 2022
運用期間 3.9 years
タイプ internet

技術仕様

分類 Payload
質量 297.00 kg
乾燥質量 275.00 kg
総質量 297.00 kg
長さ 0.20 m
直径 2.80 m
スパン 9.00 m
形状 Box + pan
製造者 SPXS
バスタイプ Starlink
フェーズステータス In Orbit
所有者/国 SPXS/US

Most Searched